Вернуться в каталог

FENGYUN 1C DEB

АктивенPO
NORAD 30944·DEBRIS·🇨🇳 China

Запущен May 10, 1999 с Taiyuan Satellite Launch Center

Loading…

Ближайшие Пролёты (ближайшие 24 часа)

TLE

СвежийSource: Space-Track

Эпоха: Sep 13, 2026, 10:24 UTC

1 30944U 99025BAJ 26256.43370432  .00000296  00000-0  75032-4 0  9990
2 30944  98.8177 331.5802 0147208 349.3251  67.3529 14.52805274 30400

Отслеживайте FENGYUN 1C DEB в реальном времени с AllMySat

Download on the App Store